Temperature
13 13 13 13 13 13 13 14 14 14 14 14 14 15 15 15 15 15 16 16 16 16 16 15 15 16 16 16 15 15 14 14 14 13 13 13 12 12
13 13 13 13 13 13 13 13 13 13 13 13 13 13 14 15 15 15 15 15 16 16 15 15 15 15 15 15 15 15 14 14 14 13 12 12 11 13
13 13 13 13 13 13 13 13 13 13 13 14 13 14 14 14 14 14 15 15 16 15 15 15 15 14 14 15 15 14 14 14 13 12 12 12 12 14
12 12 12 12 12 12 12 12 13 13 13 14 14 14 14 14 14 14 14 15 15 15 15 14 14 14 14 14 14 14 13 13 13 13 13 13 13 15
11 11 11 11 11 11 12 12 13 13 13 13 13 13 14 14 14 14 14 14 14 14 14 14 14 14 14 13 13 13 13 13 13 14 14 14 15 15
11 11 11 11 11 11 11 12 12 12 12 12 12 12 13 13 13 13 14 14 14 14 14 14 14 14 14 14 13 13 13 14 14 15 15 15 16 16
11 11 11 11 11 11 11 11 11 11 11 12 12 12 12 12 12 13 13 13 14 14 14 14 14 14 14 14 14 13 13 14 14 14 15 15 15 15
11 11 11 11 11 11 11 11 11 11 11 11 11 12 11 12 12 12 13 13 13 14 14 14 14 14 14 14 14 14 14 14 14 15 15 15 15 15
11 11 11 11 11 11 11 11 11 11 11 11 11 11 11 11 11 12 12 12 12 12 13 13 14 14 14 14 14 14 14 14 14 14 15 15 15 15
11 11 11 11 11 11 11 11 11 12 11 11 11 11 11 11 11 11 11 12 12 12 12 12 13 13 13 14 14 14 14 14 14 15 15 15 14 14
11 11 11 10 10 11 11 11 11 11 11 11 11 11 12 12 12 11 12 12 11 11 11 11 11 12 12 12 13 13 13 14 14 14 15 15 14 13
10 10 10 10 10 10 10 11 11 11 11 12 12 12 12 12 12 12 12 11 11 11 11 11 11 11 11 12 12 12 12 12 13 14 14 14 14 14
10 10 9 9 9 9 10 10 10 10 10 11 11 11 11 11 12 12 12 12 11 11 11 11 11 11 11 11 11 11 12 12 12 13 13 13 13 14
9 9 9 9 9 9 9 9 9 9 10 10 10 11 11 11 11 11 12 11 11 11 11 11 11 11 11 11 11 11 11 11 11 11 12 12 12 13
9 8 8 9 9 9 8 8 9 9 9 9 9 9 10 10 10 11 11 12 12 12 11 11 11 10 10 11 11 11 11 11 11 11 11 11 11 11
8 8 8 8 8 8 8 8 8 8 8 8 8 8 9 9 9 10 10 11 11 11 11 11 11 11 11 11 11 11 11 11 11 11 11 11 10 10
9 8 8 8 8 8 8 7 7 7 7 7 7 7 7 8 8 8 9 9 10 10 10 10 10 10 10 10 11 11 11 11 11 10 10 10 10 10
8 8 8 8 7 7 7 7 7 6 6 6 6 6 6 6 7 7 7 8 8 8 9 9 8 9 10 10 10 10 10 10 11 10 10 9 9 9
8 8 7 7 7 7 7 6 6 6 5 5 5 5 5 5 5 5 6 6 6 6 7 7 7 7 8 8 8 8 9 9 9 9 10 9 9 9
8 7 7 7 7 6 6 6 5 5 5 4 4 4 4 4 4 5 5 5 5 5 5 6 6 6 6 6 6 7 7 8 8 8 9 9 9 9
8 7 7 7 7 6 6 6 5 5 4 4 4 4 3 3 3 3 4 4 4 4 4 5 5 5 5 6 6 6 6 7 7 8 8 8 8 9
8 7 7 7 7 6 6 5 5 4 4 4 3 3 3 3 3 3 3 3 3 3 3 3 4 4 4 5 5 5 6 7 6 6 7 7 7 7
8 7 7 7 7 6 6 5 5 4 4 3 3 3 2 3 3 2 2 2 2 2 2 3 3 3 3 4 4 4 5 6 6 6 6 7 7 8
Wind_Speed
5 6 5 5 6 5 3 1 1 2 2 1 2 4 3 3 3 1 1 1 3 5 5 5 8 4 6 13 18 21 30 33 33 31 31 32 26 23
4 5 5 3 4 5 5 3 1 2 2 1 2 4 5 3 2 1 2 2 2 2 2 2 4 6 7 13 21 25 28 28 28 28 28 25 21 21
5 6 7 6 5 5 5 4 3 2 4 4 3 4 4 5 3 3 4 3 1 0 4 5 5 7 10 15 21 24 26 26 25 24 23 20 19 22
7 7 6 5 5 5 4 4 3 2 2 4 3 2 3 4 4 3 4 3 2 2 4 6 6 7 10 16 18 20 21 23 23 22 23 19 21 22
7 6 5 5 5 5 6 5 5 4 2 2 2 2 2 2 3 3 3 4 3 4 6 6 7 7 10 16 19 20 21 23 23 24 23 22 23 23
5 4 4 4 4 5 6 7 7 7 5 3 2 2 3 2 3 3 2 3 3 3 5 6 7 8 11 14 15 16 18 21 23 23 22 23 23 23
6 6 5 6 4 3 3 5 6 5 5 4 4 4 4 4 3 2 2 2 2 3 4 4 4 5 7 11 12 14 16 18 19 19 20 21 21 22
7 7 8 9 8 7 7 6 5 5 6 5 5 4 6 5 5 3 0 2 2 1 1 2 2 3 5 7 10 13 15 16 17 17 18 18 20 22
6 7 8 8 8 7 9 10 10 9 7 4 4 5 5 5 7 5 4 2 1 2 1 1 1 0 1 4 5 8 13 17 20 21 21 22 23 23
6 6 7 8 9 7 7 10 10 10 9 6 5 5 4 6 5 3 3 3 4 4 3 1 2 2 1 3 8 6 4 12 19 21 21 23 23 23
7 7 7 8 11 13 11 10 10 10 8 9 7 7 8 8 8 4 4 3 3 1 1 0 1 2 2 2 3 4 2 3 9 14 18 20 20 18
5 7 9 9 10 12 9 8 9 9 9 10 11 11 11 11 11 8 4 2 1 2 1 0 0 2 2 2 3 2 1 3 5 5 7 12 15 12
5 5 6 8 10 11 9 6 4 6 5 7 7 8 9 10 9 8 7 4 3 1 1 2 1 1 1 1 1 2 2 1 1 1 2 4 8 10
4 4 4 6 9 8 8 8 9 6 6 6 7 8 8 8 9 8 6 5 4 4 5 2 1 1 1 0 2 1 2 1 0 1 1 2 3 7
3 4 5 7 7 6 9 9 8 7 7 7 7 7 6 6 7 7 8 4 2 7 10 7 5 3 1 1 2 2 1 2 2 1 1 1 2 2
4 5 5 5 7 7 6 7 7 6 6 6 6 6 7 8 10 9 7 7 6 7 10 13 9 5 4 1 1 2 3 3 1 2 3 3 3 4
2 2 3 4 5 5 5 5 6 7 7 6 6 6 7 8 9 10 8 8 8 8 9 11 12 6 3 6 2 2 4 2 2 3 3 3 2 1
2 2 3 3 3 4 4 5 6 7 7 7 6 6 6 7 7 7 8 9 9 10 9 10 11 9 3 1 5 5 4 3 2 5 4 3 2 3
2 2 2 2 2 2 2 3 3 4 5 5 6 6 6 6 6 6 7 7 8 8 8 7 8 7 9 8 8 9 7 5 3 2 4 4 4 5
2 2 2 2 2 1 1 2 2 3 4 5 6 6 6 6 6 7 7 8 8 8 8 8 8 6 3 3 4 6 7 4 4 1 1 0 1 2
4 4 4 3 3 2 1 0 1 2 3 4 5 5 6 6 6 7 7 7 8 8 10 9 8 8 5 2 2 2 2 2 4 2 1 2 1 2
5 5 5 4 3 3 2 2 1 1 0 2 3 4 4 5 6 7 7 7 8 8 8 8 8 7 5 4 4 4 3 2 2 2 5 4 4 5
6 6 6 5 4 4 4 4 4 3 2 0 1 2 4 4 5 5 5 6 7 8 8 9 9 7 6 6 6 6 6 3 1 1 2 3 12 12
Wind_Direction
39 51 45 18 8 351 329 279 251 300 280 344 323 347 334 280 244 178 227 263 305 318 323 331 324 302 210 180 181 173 167 171 173 176 180 181 189 190
31 34 49 28 3 351 342 335 256 177 257 294 269 293 297 317 295 263 269 231 289 336 60 50 37 66 121 146 153 154 160 166 170 176 183 183 195 185
29 48 48 41 25 14 352 326 300 231 246 256 240 259 269 276 231 208 221 209 250 114 104 102 104 96 118 135 145 156 164 169 171 170 174 192 195 183
39 46 43 50 50 42 14 358 330 315 258 281 277 268 269 269 247 218 221 219 209 170 138 125 116 130 137 125 130 143 150 150 154 166 183 203 191 191
34 33 26 38 43 32 20 5 342 335 315 288 309 322 292 297 280 243 223 219 216 194 171 155 139 130 141 145 146 151 154 156 167 180 198 195 191 193
24 17 19 22 23 21 15 8 1 357 359 342 338 307 298 314 296 269 237 215 211 187 157 157 155 153 155 157 162 168 173 178 184 193 198 194 194 198
23 16 29 36 38 20 5 9 8 6 9 14 3 354 349 333 306 274 229 183 212 205 174 164 152 157 175 180 180 187 191 194 198 199 196 197 200 206
32 10 21 29 25 24 23 31 36 26 19 21 16 5 346 337 328 325 249 171 209 269 188 163 168 187 182 193 197 204 210 206 201 200 201 204 209 215
36 24 34 30 25 18 18 33 43 44 32 12 13 4 337 337 333 356 9 28 47 1 328 121 77 357 109 129 163 205 220 221 215 209 209 210 214 218
42 35 44 43 30 18 28 35 30 28 17 15 2 349 336 329 332 343 5 40 43 34 342 53 44 59 64 116 107 107 185 222 221 219 220 221 218 222
44 37 36 36 19 25 36 32 27 15 5 27 26 11 359 7 3 3 31 57 82 47 322 74 46 22 27 10 74 80 70 186 212 221 223 226 228 230
48 34 37 37 29 31 40 33 29 360 357 24 19 12 8 14 24 18 348 7 97 113 132 191 16 55 25 13 335 286 219 155 149 172 204 219 222 219
73 45 23 39 50 36 35 35 0 326 356 36 30 20 15 18 12 4 356 334 334 32 163 154 80 71 57 347 293 282 284 317 17 57 144 197 209 210
65 42 20 29 64 49 33 23 17 12 16 27 29 23 21 16 355 343 346 348 353 12 338 289 234 194 150 241 277 285 286 277 259 308 273 165 199 223
51 35 16 28 38 40 23 25 39 41 30 24 18 9 355 347 343 345 359 8 359 37 29 351 299 276 244 252 273 280 294 244 218 280 350 255 229 193
19 17 23 28 44 36 25 34 45 50 48 35 17 7 3 10 16 14 9 6 11 22 32 13 4 351 327 308 262 295 256 253 195 136 82 50 61 91
15 14 29 46 56 55 57 52 51 52 51 42 32 30 28 28 27 21 21 27 34 8 13 16 1 340 292 310 335 353 308 256 177 143 131 103 86 102
71 73 79 78 81 74 69 58 46 42 36 32 32 28 32 33 28 33 35 37 30 21 21 20 10 360 12 62 17 11 6 25 134 172 157 135 170 194
112 125 124 126 114 84 62 53 37 19 14 20 21 16 10 11 12 14 24 32 34 30 26 31 27 14 9 5 17 39 33 6 343 209 182 175 193 211
161 182 184 175 181 180 104 47 30 23 32 29 22 17 18 19 21 15 14 13 11 12 17 26 26 9 340 342 351 3 28 17 336 3 123 144 288 168
194 205 203 191 199 203 181 126 46 48 42 28 23 21 22 22 19 9 0 359 357 354 349 350 347 329 305 295 287 281 320 24 306 237 92 32 294 224
205 209 209 205 208 214 208 200 206 231 359 26 25 20 20 24 22 18 17 11 7 359 345 340 345 350 354 343 331 327 330 359 1 182 125 124 253 247
218 220 220 216 210 211 208 208 217 231 226 243 346 355 1 9 12 8 5 5 1 358 358 353 353 350 346 344 336 320 307 309 312 49 44 327 297 269
Height
1483 1482 1483 1484 1483 1484 1484 1484 1485 1482 1480 1478 1479 1480 1480 1480 1479 1478 1477 1478 1477 1474 1471 1470 1469 1466 1465 1467 1470 1473 1478 1482 1489 1496 1501 1507 1514 1522
1483 1481 1483 1483 1482 1482 1482 1482 1481 1480 1478 1477 1476 1477 1477 1476 1475 1474 1474 1475 1474 1471 1468 1467 1467 1466 1466 1467 1470 1473 1476 1481 1487 1494 1500 1506 1513 1519
1483 1483 1482 1481 1481 1481 1480 1480 1478 1476 1475 1475 1475 1475 1474 1473 1471 1471 1471 1472 1471 1469 1467 1466 1467 1467 1467 1468 1470 1473 1475 1480 1485 1492 1499 1505 1512 1517
1485 1483 1481 1479 1480 1479 1480 1478 1476 1474 1474 1473 1474 1474 1472 1471 1470 1468 1468 1468 1467 1466 1465 1466 1466 1467 1467 1468 1471 1474 1475 1479 1485 1491 1497 1503 1510 1515
1485 1484 1483 1480 1479 1478 1479 1478 1475 1472 1471 1471 1471 1471 1469 1467 1467 1466 1464 1465 1465 1465 1464 1465 1466 1466 1468 1470 1473 1475 1477 1481 1485 1492 1497 1502 1507 1511
1487 1485 1483 1482 1481 1480 1479 1476 1474 1472 1470 1470 1468 1467 1465 1462 1461 1461 1461 1462 1462 1464 1464 1465 1466 1467 1469 1471 1473 1476 1479 1483 1489 1494 1497 1500 1504 1507
1489 1488 1485 1484 1483 1482 1481 1477 1475 1474 1471 1469 1468 1465 1464 1461 1458 1457 1457 1459 1459 1461 1462 1463 1465 1467 1469 1472 1473 1476 1479 1482 1486 1489 1493 1496 1500 1503
1491 1491 1488 1486 1485 1484 1482 1479 1478 1476 1474 1470 1469 1467 1464 1461 1457 1454 1453 1456 1458 1460 1460 1462 1464 1466 1469 1471 1473 1476 1478 1481 1483 1486 1489 1492 1496 1500
1494 1493 1491 1489 1488 1487 1484 1481 1479 1477 1475 1473 1471 1468 1465 1462 1459 1455 1453 1454 1456 1458 1459 1460 1461 1464 1467 1469 1471 1473 1475 1477 1479 1482 1486 1488 1491 1493
1496 1495 1494 1492 1491 1489 1486 1483 1481 1479 1477 1476 1474 1471 1468 1465 1462 1459 1455 1455 1457 1458 1461 1460 1459 1460 1463 1464 1467 1469 1471 1473 1474 1475 1478 1481 1483 1486
1497 1496 1495 1494 1493 1490 1488 1486 1484 1482 1480 1479 1477 1474 1471 1468 1466 1464 1462 1460 1459 1460 1462 1461 1457 1457 1459 1461 1462 1465 1467 1468 1470 1470 1472 1474 1476 1479
1498 1497 1496 1495 1494 1491 1490 1488 1486 1484 1482 1481 1479 1476 1473 1470 1468 1466 1464 1464 1462 1462 1461 1462 1460 1458 1459 1459 1460 1461 1463 1464 1465 1467 1469 1470 1472 1473
1498 1497 1496 1494 1493 1491 1490 1488 1487 1486 1484 1482 1479 1477 1474 1472 1470 1468 1466 1464 1464 1463 1463 1461 1461 1460 1459 1460 1460 1460 1459 1459 1461 1463 1465 1466 1467 1468
1498 1497 1495 1493 1492 1491 1490 1488 1487 1486 1484 1482 1479 1477 1476 1474 1473 1471 1469 1467 1465 1464 1462 1462 1462 1462 1461 1461 1461 1460 1457 1456 1456 1458 1459 1461 1462 1462
1497 1496 1495 1493 1491 1490 1489 1488 1487 1485 1483 1481 1479 1478 1477 1475 1473 1471 1470 1468 1467 1465 1463 1461 1461 1461 1460 1459 1458 1458 1456 1455 1455 1456 1456 1456 1456 1456
1495 1495 1494 1493 1492 1491 1490 1488 1486 1485 1484 1482 1480 1479 1477 1475 1473 1471 1469 1467 1465 1464 1463 1462 1460 1459 1458 1458 1457 1455 1455 1454 1455 1454 1454 1454 1453 1452
1494 1494 1494 1493 1492 1491 1490 1488 1487 1485 1484 1482 1481 1480 1478 1476 1474 1472 1469 1467 1465 1462 1461 1460 1460 1460 1459 1458 1456 1453 1453 1453 1453 1453 1453 1452 1451 1449
1493 1493 1494 1493 1492 1491 1490 1489 1487 1485 1484 1483 1481 1479 1478 1476 1474 1472 1471 1469 1466 1464 1461 1459 1459 1459 1458 1458 1457 1454 1454 1453 1451 1452 1453 1453 1451 1449
1492 1493 1493 1493 1492 1491 1490 1489 1487 1486 1484 1482 1480 1479 1477 1475 1473 1472 1470 1469 1467 1466 1463 1461 1460 1459 1457 1455 1455 1453 1451 1452 1451 1450 1450 1452 1451 1450
1492 1493 1493 1493 1492 1492 1491 1489 1488 1486 1484 1482 1481 1479 1476 1475 1473 1472 1471 1469 1467 1465 1464 1461 1460 1459 1458 1456 1453 1452 1450 1451 1450 1449 1448 1448 1449 1449
1493 1493 1492 1492 1492 1492 1491 1489 1488 1487 1485 1483 1481 1479 1476 1475 1473 1472 1470 1469 1467 1464 1462 1461 1459 1458 1456 1454 1453 1451 1449 1448 1447 1446 1445 1446 1446 1447
1491 1491 1491 1491 1491 1491 1490 1489 1488 1487 1485 1483 1481 1479 1477 1475 1473 1471 1470 1468 1467 1465 1462 1460 1458 1455 1454 1452 1449 1447 1445 1445 1445 1444 1443 1444 1445 1446
1489 1489 1489 1489 1489 1489 1488 1487 1487 1486 1484 1483 1481 1479 1477 1475 1472 1471 1469 1468 1466 1464 1462 1460 1457 1455 1452 1449 1446 1443 1441 1439 1441 1441 1440 1442 1443 1442